MICROMAS-2A (43131 NORAD) Tracking and Keplerian Element Data

This shows tracking and keplerian element data for the satellite.

Feedback or suggestion? Click here.




ElementValue
Catalog43131
NameMICROMAS-2A
Epoch Orbit20618
Epoch Day269.44667249
Epoch Year2021
RAAN344.7415
Inclination97.404
Eccentricity0.0007854
Argument of Perigee194.6616
Mean Anonmoly165.4397
Mean Motion15.28158402
Decay Rate6.487E-05
L11 43131U 18004W 21269.44667249 .00006487 00000-0 23889-3 0 9995
L22 43131 97.4040 344.7415 0007854 194.6616 165.4397 15.28158402206181

Live tracking and technical data element details for MICROMAS-2A (NORAD 43131). MICROMAS-2A can be tracked NOW for your location showing map with azimuth and elevation plus other details from your city location.

Track the satellite on the map from your city or location and see movement details for azimuth, elevation, latitude, longitude, range, height, and movement on the map or in text.







IsCatalogInMostPopularTable: catalog: 43131, numindb: 716
Update: records affected: 1



GetName: 43131 MICROMAS-2A

Hit Count: updated at: Tue, 28 Sep 2021 15:45:03 GMT